| time (UTC) | temp C | wind direction | speed KPH | gust KPH | rain 1hr cm | rain 24hr cm | rain mn cm | humidity % | barometer mb |
| 20260507144607 | 5 | 133 | 0.0 | 0.0 | 0.00 | 0.00 | 0.00 | 92 | 1013.9 |
| 20260507143038 | 4 | 133 | 0.0 | 0.0 | 0.00 | 0.00 | 0.00 | 92 | 1013.9 |
| 20260507141543 | 2 | 133 | 0.0 | 1.6 | 0.00 | 0.00 | 0.00 | 92 | 1013.9 |
| 20260507140037 | 1 | 133 | 0.0 | 0.0 | 0.00 | 0.00 | 0.00 | 92 | 1013.8 |
| 20260507134540 | 1 | 133 | 0.0 | 0.0 | 0.00 | 0.00 | 0.00 | 92 | 1013.8 |
| 20260507133036 | 1 | 133 | 0.0 | 0.0 | 0.00 | 0.00 | 0.00 | 92 | 1013.6 |
| 20260507131535 | 1 | 133 | 0.0 | 0.0 | 0.00 | 0.00 | 0.00 | 92 | 1013.6 |
| 20260507130031 | 1 | 133 | 0.0 | 0.0 | 0.00 | 0.00 | 0.00 | 92 | 1013.5 |
| 20260507124531 | 1 | 133 | 0.0 | 0.0 | 0.00 | 0.00 | 0.00 | 92 | 1013.5 |
| 20260507123029 | 1 | 132 | 0.0 | 0.0 | 0.00 | 0.00 | 0.00 | 92 | 1013.5 |
| 20260507121526 | 1 | 132 | 0.0 | 0.0 | 0.00 | 0.00 | 0.00 | 92 | 1013.4 |
| 20260507120024 | 2 | 133 | 0.0 | 1.6 | 0.00 | 0.00 | 0.00 | 92 | 1013.4 |
| 20260507114521 | 2 | 102 | 0.0 | 0.0 | 0.00 | 0.00 | 0.00 | 92 | 1013.4 |
| 20260507113020 | 2 | 102 | 0.0 | 0.0 | 0.00 | 0.00 | 0.00 | 92 | 1013.4 |
| 20260507111528 | 2 | 102 | 0.0 | 0.0 | 0.00 | 0.00 | 0.00 | 92 | 1013.4 |
| 20260507110015 | 2 | 102 | 0.0 | 0.0 | 0.00 | 0.00 | 0.00 | 92 | 1013.4 |
| 20260507104513 | 3 | 102 | 0.0 | 0.0 | 0.00 | 0.00 | 0.00 | 92 | 1013.3 |
| 20260507103010 | 3 | 102 | 0.0 | 0.0 | 0.00 | 0.00 | 0.00 | 92 | 1013.3 |
| 20260507101508 | 3 | 102 | 0.0 | 0.0 | 0.00 | 0.00 | 0.00 | 92 | 1013.3 |
| 20260507100004 | 3 | 102 | 0.0 | 0.0 | 0.00 | 0.00 | 0.00 | 92 | 1013.3 |
| 20260507094503 | 3 | 102 | 0.0 | 0.0 | 0.00 | 0.00 | 0.00 | 91 | 1013.2 |
| 20260507093101 | 4 | 102 | 0.0 | 0.0 | 0.00 | 0.00 | 0.00 | 91 | 1013.0 |
| 20260507091600 | 4 | 102 | 0.0 | 0.0 | 0.00 | 0.00 | 0.00 | 91 | 1012.9 |
| 20260507090053 | 5 | 102 | 0.0 | 0.0 | 0.00 | 0.00 | 0.00 | 91 | 1012.8 |
| 20260507084551 | 5 | 102 | 0.0 | 0.0 | 0.00 | 0.00 | 0.00 | 91 | 1012.7 |
| 20260507083050 | 5 | 102 | 0.0 | 0.0 | 0.00 | 0.00 | 0.00 | 91 | 1012.7 |
| 20260507081547 | 5 | 102 | 0.0 | 0.0 | 0.00 | 0.00 | 0.00 | 91 | 1012.8 |
| 20260507080046 | 5 | 102 | 0.0 | 1.6 | 0.00 | 0.00 | 0.00 | 91 | 1012.7 |
| 20260507074544 | 5 | 333 | 0.0 | 0.0 | 0.00 | 0.00 | 0.00 | 91 | 1012.7 |
| 20260507073043 | 6 | 333 | 0.0 | 0.0 | 0.00 | 0.00 | 0.00 | 91 | 1012.8 |
| 20260507071540 | 6 | 333 | 0.0 | 0.0 | 0.00 | 0.00 | 0.00 | 91 | 1012.7 |
| 20260507070037 | 6 | 333 | 0.0 | 0.0 | 0.00 | 0.00 | 0.00 | 90 | 1012.6 |
| 20260507064537 | 6 | 333 | 0.0 | 0.0 | 0.00 | 0.00 | 0.00 | 90 | 1012.6 |
| 20260507063045 | 7 | 333 | 0.0 | 0.0 | 0.00 | 0.00 | 0.00 | 89 | 1012.6 |
| 20260507061536 | 7 | 333 | 0.0 | 0.0 | 0.00 | 0.00 | 0.00 | 89 | 1012.6 |
| 20260507060050 | 8 | 333 | 0.0 | 0.0 | 0.00 | 0.00 | 0.00 | 88 | 1012.7 |
| 20260507054545 | 8 | 333 | 0.0 | 0.0 | 0.00 | 0.00 | 0.00 | 87 | 1012.7 |
| 20260507053037 | 9 | 333 | 0.0 | 0.0 | 0.00 | 0.00 | 0.00 | 86 | 1012.7 |
| 20260507051534 | 9 | 333 | 0.0 | 0.0 | 0.00 | 0.00 | 0.00 | 86 | 1012.7 |
| 20260507050037 | 10 | 333 | 0.0 | 0.0 | 0.00 | 0.00 | 0.00 | 84 | 1012.7 |
| 20260507044547 | 10 | 333 | 0.0 | 0.0 | 0.00 | 0.00 | 0.00 | 83 | 1013.0 |
| 20260507043032 | 10 | 333 | 0.0 | 0.0 | 0.00 | 0.00 | 0.00 | 82 | 1012.9 |
| 20260507041532 | 11 | 333 | 0.0 | 0.0 | 0.00 | 0.00 | 0.00 | 81 | 1012.9 |
| 20260507040034 | 11 | 334 | 0.0 | 0.0 | 0.00 | 0.00 | 0.00 | 79 | 1012.7 |
| 20260507034535 | 12 | 333 | 0.0 | 0.0 | 0.00 | 0.00 | 0.00 | 77 | 1012.5 |
| 20260507033033 | 12 | 333 | 0.0 | 0.0 | 0.00 | 0.00 | 0.00 | 76 | 1012.3 |
| 20260507031530 | 13 | 333 | 0.0 | 0.0 | 0.00 | 0.00 | 0.00 | 74 | 1012.2 |
| 20260507030029 | 14 | 333 | 0.0 | 0.0 | 0.00 | 0.00 | 0.00 | 71 | 1012.0 |
| 20260507024529 | 15 | 333 | 0.0 | 0.0 | 0.00 | 0.00 | 0.00 | 66 | 1011.9 |
| 20260507023128 | 16 | 326 | 0.0 | 1.6 | 0.00 | 0.00 | 0.00 | 63 | 1011.8 |
| 20260507021530 | 16 | 43 | 0.0 | 1.6 | 0.00 | 0.00 | 0.00 | 60 | 1011.7 |
| 20260507020039 | 17 | 60 | 0.0 | 4.8 | 0.00 | 0.00 | 0.00 | 54 | 1011.5 |
| 20260507014526 | 18 | 77 | 0.0 | 8.0 | 0.00 | 0.00 | 0.00 | 52 | 1011.4 |
| 20260507013026 | 18 | 3 | 0.0 | 3.2 | 0.00 | 0.00 | 0.00 | 49 | 1011.3 |
| 20260507011526 | 18 | 290 | 0.0 | 3.2 | 0.00 | 0.00 | 0.00 | 49 | 1011.4 |
| 20260507010028 | 19 | 261 | 0.0 | 11.3 | 0.00 | 0.00 | 0.00 | 42 | 1011.2 |
| 20260507004529 | 20 | 162 | 1.6 | 12.9 | 0.00 | 0.00 | 0.00 | 40 | 1011.2 |
| 20260507003027 | 20 | 74 | 0.0 | 9.7 | 0.00 | 0.00 | 0.00 | 38 | 1011.1 |
| 20260507001529 | 21 | 117 | 6.4 | 8.0 | 0.00 | 0.00 | 0.00 | 33 | 1011.1 |
| 20260507000020 | 21 | 72 | 9.7 | 17.7 | 0.00 | 0.00 | 0.00 | 33 | 1011.3 |
| 20260506234522 | 21 | 341 | 1.6 | 14.5 | 0.00 | 0.00 | 0.00 | 32 | 1011.1 |
| 20260506233020 | 21 | 186 | 1.6 | 12.9 | 0.00 | 0.00 | 0.00 | 32 | 1011.3 |
| 20260506231518 | 22 | 72 | 3.2 | 11.3 | 0.00 | 0.00 | 0.00 | 29 | 1011.4 |
| 20260506230016 | 22 | 101 | 0.0 | 8.0 | 0.00 | 0.00 | 0.00 | 31 | 1011.5 |
| 20260506224515 | 21 | 319 | 0.0 | 11.3 | 0.00 | 0.00 | 0.00 | 36 | 1011.6 |
| 20260506223014 | 21 | 271 | 0.0 | 11.3 | 0.00 | 0.00 | 0.00 | 36 | 1011.8 |
| 20260506221513 | 21 | 91 | 3.2 | 14.5 | 0.00 | 0.00 | 0.00 | 35 | 1012.0 |
| 20260506220011 | 22 | 333 | 1.6 | 14.5 | 0.00 | 0.00 | 0.00 | 32 | 1011.9 |
| 20260506214509 | 22 | 52 | 1.6 | 8.0 | 0.00 | 0.00 | 0.00 | 32 | 1012.2 |
| 20260506213011 | 22 | 332 | 4.8 | 16.1 | 0.00 | 0.00 | 0.00 | 32 | 1012.6 |
| 20260506211504 | 21 | 87 | 6.4 | 20.9 | 0.00 | 0.00 | 0.00 | 34 | 1012.8 |
| 20260506210004 | 21 | 259 | 4.8 | 17.7 | 0.00 | 0.00 | 0.00 | 29 | 1012.7 |
| 20260506204502 | 21 | 77 | 3.2 | 14.5 | 0.00 | 0.00 | 0.00 | 31 | 1012.9 |
| 20260506203100 | 21 | 282 | 4.8 | 17.7 | 0.00 | 0.00 | 0.00 | 31 | 1012.8 |
| 20260506201600 | 21 | 345 | 1.6 | 9.7 | 0.00 | 0.00 | 0.00 | 31 | 1013.0 |
| 20260506200056 | 21 | 96 | 6.4 | 19.3 | 0.00 | 0.00 | 0.00 | 31 | 1013.2 |
| 20260506194604 | 21 | 225 | 6.4 | 19.3 | 0.00 | 0.00 | 0.00 | 33 | 1013.0 |
| 20260506193057 | 20 | 334 | 1.6 | 4.8 | 0.00 | 0.00 | 0.00 | 37 | 1013.5 |
| 20260506191552 | 20 | 114 | 0.0 | 11.3 | 0.00 | 0.00 | 0.00 | 38 | 1013.8 |
| 20260506190049 | 20 | 113 | 3.2 | 9.7 | 0.00 | 0.00 | 0.00 | 36 | 1013.9 |
| 20260506184548 | 20 | 51 | 4.8 | 9.7 | 0.00 | 0.00 | 0.00 | 37 | 1013.9 |
| 20260506183046 | 20 | 57 | 4.8 | 11.3 | 0.00 | 0.00 | 0.00 | 36 | 1014.0 |
| 20260506181547 | 20 | 245 | 1.6 | 8.0 | 0.00 | 0.00 | 0.00 | 39 | 1014.0 |
| 20260506180047 | 19 | 300 | 3.2 | 14.5 | 0.00 | 0.00 | 0.00 | 39 | 1014.0 |
| 20260506174536 | 18 | 326 | 3.2 | 9.7 | 0.00 | 0.00 | 0.00 | 42 | 1014.0 |
| 20260506173032 | 18 | 347 | 1.6 | 9.7 | 0.00 | 0.00 | 0.00 | 45 | 1014.2 |
| 20260506171543 | 17 | 85 | 0.0 | 8.0 | 0.00 | 0.00 | 0.00 | 45 | 1014.4 |
| 20260506170030 | 16 | 274 | 0.0 | 6.4 | 0.00 | 0.00 | 0.00 | 47 | 1014.6 |
| 20260506164521 | 15 | 75 | 0.0 | 3.2 | 0.00 | 0.00 | 0.00 | 54 | 1014.7 |
| 20260506163017 | 12 | 67 | 0.0 | 3.2 | 0.00 | 0.00 | 0.00 | 63 | 1015.0 |
| 20260506161512 | 11 | 107 | 0.0 | 1.6 | 0.00 | 0.00 | 0.00 | 62 | 1015.3 |
| 20260506160008 | 8 | 87 | 0.0 | 1.6 | 0.00 | 0.00 | 0.00 | 69 | 1015.6 |
| 20260506154503 | 7 | 87 | 0.0 | 1.6 | 0.00 | 0.00 | 0.00 | 78 | 1015.9 |
| 20260506153058 | 6 | 258 | 0.0 | 1.6 | 0.00 | 0.00 | 0.00 | 83 | 1016.0 |
| 20260506151555 | 5 | 258 | 0.0 | 1.6 | 0.00 | 0.00 | 0.00 | 88 | 1016.3 |
| 20260506150052 | 3 | 258 | 0.0 | 1.6 | 0.00 | 0.00 | 0.00 | 90 | 1016.6 |